Wind_Speed
23 23 23 23 22 22 21 19 19 20 20 20 20 19 18 18 17 17 17 16 16 16 15 15 15 15 15 15 15 14 14 14 14 14 13 13 12 12 12 11 11 10 10 9 9 8 8 8 7
23 24 24 25 24 23 22 22 21 21 22 21 21 21 20 20 19 18 18 18 18 18 17 17 17 17 17 17 17 16 16 16 16 16 15 14 14 14 13 12 12 12 11 11 10 10 10 9 9
25 25 25 26 25 25 24 23 23 23 23 23 22 22 22 21 21 21 20 20 19 19 19 19 20 19 19 19 19 19 18 18 18 18 17 17 16 16 15 14 14 14 13 13 12 12 11 11 10
25 26 26 26 26 25 25 24 24 24 24 25 24 24 24 23 23 22 22 22 22 21 21 22 22 22 22 21 21 21 21 20 20 20 19 19 18 18 17 16 16 16 16 15 14 14 13 13 12
27 27 27 27 27 26 26 26 26 25 26 26 26 26 26 25 25 24 24 24 24 23 23 24 24 23 23 23 23 22 22 22 22 22 22 21 21 20 19 19 18 18 17 17 17 16 16 15 14
28 28 28 26 27 27 27 27 27 27 27 27 27 27 27 27 27 26 26 26 26 25 25 24 24 25 25 25 24 24 24 24 24 24 24 23 23 23 22 21 21 21 20 19 19 19 18 18 17
29 29 28 27 27 27 27 28 28 28 28 28 28 28 28 28 28 28 28 28 28 27 26 25 26 27 27 27 27 26 26 26 26 26 26 25 25 26 25 24 24 23 23 22 21 21 21 20 20
29 30 29 28 28 27 28 29 29 29 30 29 29 29 29 29 30 30 30 29 28 28 28 28 28 28 28 28 29 29 28 28 28 28 28 27 27 28 28 27 26 25 25 25 24 24 23 23 23
30 30 29 28 29 28 28 29 30 30 31 31 31 31 31 32 32 32 31 30 29 30 30 29 30 29 29 30 30 30 30 30 30 30 30 30 29 29 29 29 28 28 28 27 27 26 26 25 25
30 30 29 29 30 29 29 30 30 30 31 32 32 32 31 33 33 32 32 32 31 31 31 31 31 31 31 31 31 31 31 31 32 32 32 32 31 31 31 31 30 30 30 30 29 29 29 28 28
31 30 30 30 30 31 30 31 31 31 32 32 32 33 32 33 34 33 33 33 33 33 32 32 32 32 31 31 32 32 32 32 32 32 33 33 33 33 32 32 32 32 32 32 32 32 32 32 31
31 30 30 30 31 32 32 32 32 32 32 32 33 33 33 34 34 34 34 34 34 34 34 33 33 33 33 33 33 33 33 33 33 33 33 34 34 34 33 33 33 33 33 33 34 34 34 34 34
31 30 30 31 31 32 32 32 32 32 32 33 33 33 33 34 34 34 35 35 35 35 35 35 34 35 35 34 35 34 35 35 35 35 35 34 34 35 34 34 35 35 35 35 35 36 36 36 36
31 31 31 31 31 32 32 33 33 32 33 33 33 33 33 33 34 34 34 34 35 35 36 36 37 36 35 35 36 36 36 36 36 36 36 36 36 36 36 36 36 37 36 36 36 37 37 37 37
30 31 32 31 32 32 33 33 33 32 33 33 32 33 33 33 34 34 35 36 36 36 37 37 37 37 36 37 37 36 38 38 38 38 38 38 38 39 38 38 38 38 39 38 39 39 39 38 39
30 31 31 31 32 32 34 33 32 33 32 32 32 33 33 33 33 33 35 35 36 37 36 37 37 37 37 38 39 39 39 39 39 39 39 40 40 41 41 40 40 40 40 40 41 40 40 40 40
30 31 31 31 31 32 33 32 31 32 32 32 32 32 32 32 33 33 34 34 35 35 36 36 37 37 38 39 39 40 40 40 41 41 41 42 42 42 42 42 42 42 42 42 42 41 41 41 40
29 30 31 31 30 31 32 31 31 31 32 32 32 32 31 32 32 33 33 34 33 34 35 36 36 38 39 40 41 41 42 41 41 41 42 43 43 43 43 43 43 43 43 43 43 43 42 41 42
30 31 31 31 31 32 32 32 31 31 32 32 32 31 31 30 31 32 33 33 33 34 35 36 37 38 39 40 41 42 43 43 42 42 43 43 43 44 44 44 45 45 44 43 44 44 43 43 43
29 30 30 31 32 33 32 32 31 31 31 31 32 31 30 30 30 31 32 33 33 33 35 36 38 38 39 39 40 41 42 43 43 42 42 43 44 43 44 44 45 45 45 45 45 46 45 45 45
29 29 29 30 31 31 32 32 31 30 30 30 31 31 31 31 31 32 33 34 33 33 34 36 37 39 39 39 40 41 43 43 43 43 43 43 44 45 45 45 45 46 46 47 46 47 47 47 46
28 28 29 29 30 30 31 32 29 29 29 28 28 29 30 31 32 32 32 34 34 34 34 35 37 38 39 40 40 40 42 43 43 43 44 43 44 45 45 46 46 47 47 47 47 47 47 47 46
27 28 28 29 30 30 30 32 29 29 29 28 28 28 30 30 32 32 32 33 34 35 35 36 36 37 39 40 40 41 41 42 42 43 43 43 43 44 44 45 46 47 48 48 48 48 48 47 47
27 28 28 29 30 31 29 31 30 28 28 28 29 29 30 30 31 31 31 33 34 35 36 36 37 37 38 39 40 40 39 40 41 41 42 42 43 44 44 45 46 47 48 48 48 47 47 48 48
27 27 28 29 30 30 29 30 30 27 28 28 29 30 30 31 31 31 31 32 33 34 36 36 36 37 37 38 39 39 39 39 40 41 42 42 43 44 45 45 45 46 47 48 48 48 49 49 49
27 28 29 30 30 30 29 30 28 27 27 28 29 29 30 30 31 31 32 33 34 35 36 36 37 37 37 38 38 38 38 38 39 41 42 43 43 44 45 46 46 46 47 47 47 48 49 49 50
26 27 27 29 29 30 30 29 28 27 28 28 29 30 30 31 31 32 32 34 34 35 36 37 38 38 38 38 38 39 39 39 39 40 41 42 43 44 44 45 47 46 46 46 47 47 48 48 49
27 26 26 27 28 30 30 29 28 28 28 29 29 29 30 31 31 32 32 32 33 34 35 36 37 38 39 39 39 39 40 40 40 40 40 41 43 44 45 45 46 45 46 47 48 47 47 47 48
27 27 28 28 29 29 30 29 28 28 29 29 29 29 29 30 31 31 31 32 32 33 35 36 36 37 38 39 40 40 40 41 41 41 41 41 42 43 44 44 44 44 45 46 46 46 47 47 47
27 27 28 29 29 29 30 28 27 28 28 28 28 28 29 30 31 31 31 32 32 32 33 34 35 36 37 37 38 38 39 40 41 42 42 41 42 42 43 43 44 44 44 45 45 46 46 46 47
Wind_Direction
250 250 250 251 251 251 253 252 253 254 255 255 257 258 258 260 261 262 262 263 263 263 261 260 259 258 258 258 259 259 259 259 258 261 261 264 265 263 264 265 265 265 268 269 267 263 260 260 263
252 252 251 252 252 253 254 254 253 255 256 256 256 256 257 258 260 260 260 260 260 260 260 260 260 260 260 259 258 258 259 259 261 262 262 263 264 262 262 262 263 264 266 267 266 264 261 261 263
254 253 253 253 254 255 256 255 255 254 255 256 256 255 256 257 258 259 259 259 259 259 259 261 261 260 261 260 258 258 259 260 262 263 261 261 261 260 258 260 260 261 263 264 265 264 263 262 263
254 254 255 256 256 256 257 257 256 255 255 256 256 256 257 257 257 258 259 259 259 260 260 260 261 260 260 260 259 258 259 260 260 260 260 259 260 259 257 257 259 260 262 263 263 263 264 264 264
253 254 256 257 257 257 257 257 257 256 256 256 257 257 258 258 258 258 258 258 259 259 259 260 260 260 259 258 258 257 258 259 259 259 258 258 258 258 257 257 258 260 261 262 263 263 264 264 265
255 256 256 256 257 257 257 257 257 257 257 258 257 257 258 258 259 259 259 259 260 260 259 259 259 259 258 258 257 258 258 258 259 259 258 257 257 257 256 257 257 258 259 260 262 262 263 264 265
255 256 256 256 257 257 257 258 258 258 257 257 258 257 258 258 259 259 259 259 260 259 257 257 258 258 258 257 257 257 258 258 259 259 258 258 258 258 257 256 257 257 258 258 259 260 262 263 264
255 255 255 256 257 258 258 258 259 258 258 258 258 258 258 258 259 259 259 259 258 258 258 257 258 258 258 258 257 257 258 259 259 259 259 259 259 259 258 257 257 258 258 258 260 260 261 263 265
254 254 255 256 256 257 257 258 259 259 259 259 259 259 258 258 259 259 260 258 258 259 258 258 258 258 258 257 257 258 258 259 259 259 259 260 260 260 259 258 258 258 259 259 260 261 262 263 265
255 255 256 256 257 257 258 258 259 260 260 260 260 260 259 259 259 259 258 257 257 257 257 257 257 256 257 257 257 257 258 259 260 259 259 259 260 261 260 259 258 258 258 259 260 261 262 263 265
254 256 256 256 256 257 258 259 260 260 260 262 261 260 259 259 260 258 257 257 257 256 256 257 256 255 256 257 257 257 257 259 260 259 258 259 260 261 260 259 258 259 259 260 260 261 262 264 265
255 255 256 256 256 258 259 259 259 260 262 263 263 260 259 258 257 256 255 256 255 255 256 255 255 255 255 257 257 257 258 258 259 259 259 259 260 261 260 260 259 259 259 260 261 262 263 264 265
255 254 256 256 257 258 259 259 260 261 262 262 263 260 258 258 257 255 255 256 255 254 254 254 255 254 255 256 256 257 258 258 258 259 258 259 260 261 260 261 260 260 261 261 262 263 264 264 265
255 255 255 256 257 258 259 260 261 262 263 263 262 261 258 256 256 255 255 256 256 255 253 253 254 254 255 256 256 258 258 259 259 258 259 259 260 261 261 261 260 260 261 263 264 265 266 265 265
256 256 256 256 258 259 260 260 262 263 263 263 262 261 259 257 256 256 256 256 256 256 253 252 252 253 254 256 257 259 259 258 259 259 259 260 260 261 262 263 261 261 262 263 265 267 267 268 267
256 256 257 258 259 260 260 261 263 264 264 263 262 260 259 257 257 257 258 258 257 256 254 253 253 253 254 257 259 260 261 260 259 258 259 260 261 262 263 263 262 262 263 264 266 266 266 266 266
258 258 258 259 260 261 261 261 262 264 264 263 262 261 259 258 258 258 259 259 258 257 256 255 255 255 256 257 258 260 262 261 260 260 260 261 261 262 262 262 262 262 264 265 265 266 266 265 266
259 260 260 260 261 263 262 262 263 264 265 263 262 261 260 259 258 258 258 259 259 259 258 256 256 256 257 257 259 260 262 261 260 260 262 262 262 262 262 261 262 262 263 265 265 265 266 266 267
260 261 261 260 261 262 262 262 263 265 265 264 262 261 259 260 259 259 259 260 260 260 259 257 257 257 259 260 260 261 262 262 261 261 262 263 263 262 261 261 261 262 263 265 266 266 266 267 268
260 262 262 260 261 262 263 263 265 266 266 265 263 260 258 259 260 261 260 260 261 261 260 258 259 258 260 262 262 262 262 262 263 263 263 263 263 263 263 262 263 261 263 265 267 266 266 268 268
261 262 263 263 263 265 266 264 264 266 267 266 264 260 258 258 261 263 262 261 261 262 262 260 260 260 261 262 263 263 263 262 263 263 264 263 263 263 263 263 263 263 264 265 267 267 267 268 269
261 262 263 264 264 266 267 267 264 265 266 266 265 263 262 261 263 264 264 263 263 263 263 262 262 262 262 263 263 265 264 264 263 264 264 264 263 262 263 263 263 263 263 265 267 268 267 268 269
260 260 262 264 265 267 268 269 266 264 265 267 268 268 266 265 264 265 265 264 263 263 263 263 264 265 265 265 265 265 265 265 264 263 264 264 263 263 262 262 263 264 264 265 267 268 268 269 270
260 260 262 263 265 266 268 270 268 267 267 268 269 270 269 267 266 266 266 266 264 263 264 265 267 268 268 267 266 265 265 265 265 264 264 264 264 264 263 263 264 264 264 265 267 268 268 269 270
261 262 264 264 265 267 268 269 270 269 269 270 270 271 271 269 268 267 267 266 266 265 265 266 268 269 269 268 266 266 265 265 265 265 265 265 265 265 263 264 265 265 266 266 268 268 268 269 270
262 262 264 265 267 269 268 270 272 273 272 272 272 271 271 271 269 268 268 267 267 267 266 267 268 269 269 268 267 266 266 266 266 266 265 265 266 266 266 266 266 266 266 267 269 270 269 270 270
261 261 263 265 268 269 269 272 273 274 274 275 274 273 272 272 271 271 270 269 268 268 268 268 269 269 268 267 267 268 267 267 267 268 267 266 266 266 266 266 266 266 266 267 269 270 270 270 270
260 261 262 263 267 270 271 273 276 275 276 276 276 273 272 272 272 272 271 271 270 270 270 270 270 269 268 267 267 267 268 268 268 269 268 268 267 267 266 266 266 266 266 267 269 270 269 270 271
261 261 263 264 266 271 274 276 277 277 276 276 276 275 273 272 272 272 272 271 272 272 271 270 271 270 269 269 268 268 269 269 269 270 269 268 268 268 267 266 266 266 267 268 269 270 269 269 270
261 263 264 266 268 271 275 277 278 278 277 277 277 276 275 274 273 273 273 273 273 273 273 272 271 271 271 271 271 270 270 271 271 271 270 269 268 268 267 267 267 267 269 270 270 270 270 270 271
Height
5836 5837 5839 5840 5841 5842 5842 5844 5844 5844 5845 5845 5846 5847 5848 5848 5850 5852 5851 5851 5851 5851 5851 5852 5852 5852 5852 5853 5853 5853 5854 5854 5854 5854 5854 5855 5855 5855 5855 5855 5855 5855 5855 5854 5854 5854 5854 5854 5853
5832 5833 5835 5835 5836 5837 5839 5840 5840 5840 5841 5841 5842 5843 5843 5844 5845 5846 5846 5847 5847 5848 5848 5848 5849 5849 5849 5849 5850 5850 5851 5851 5851 5852 5852 5852 5852 5852 5853 5853 5853 5853 5853 5852 5852 5852 5852 5852 5852
5827 5828 5830 5830 5831 5833 5834 5835 5836 5836 5836 5837 5838 5838 5839 5840 5841 5841 5842 5843 5843 5844 5844 5844 5845 5845 5845 5845 5846 5847 5847 5848 5848 5848 5849 5849 5849 5850 5850 5850 5850 5850 5850 5850 5850 5850 5850 5850 5850
5823 5824 5825 5826 5826 5828 5829 5830 5830 5831 5831 5832 5833 5834 5834 5836 5836 5837 5838 5838 5839 5839 5840 5840 5840 5841 5841 5841 5842 5842 5843 5844 5844 5844 5845 5845 5846 5846 5847 5847 5847 5847 5847 5847 5847 5847 5847 5847 5847
5817 5818 5819 5820 5821 5823 5824 5824 5825 5826 5826 5827 5828 5828 5829 5831 5831 5832 5833 5833 5834 5834 5835 5835 5835 5835 5836 5836 5837 5837 5838 5839 5839 5840 5841 5841 5842 5842 5843 5843 5843 5843 5844 5844 5844 5844 5844 5844 5844
5811 5812 5813 5814 5816 5817 5818 5818 5819 5820 5821 5822 5822 5823 5824 5825 5826 5826 5827 5828 5828 5829 5829 5829 5830 5830 5831 5831 5832 5833 5833 5834 5834 5835 5836 5836 5837 5838 5838 5839 5839 5840 5840 5840 5840 5841 5841 5841 5841
5805 5806 5806 5808 5809 5811 5812 5812 5813 5814 5815 5816 5817 5817 5818 5819 5820 5820 5821 5822 5822 5822 5823 5823 5824 5824 5825 5826 5826 5827 5828 5828 5829 5829 5830 5831 5832 5832 5833 5834 5834 5835 5835 5836 5836 5836 5837 5837 5837
5797 5799 5800 5801 5803 5805 5806 5806 5807 5808 5808 5809 5810 5811 5812 5813 5813 5814 5815 5815 5816 5816 5816 5817 5817 5818 5819 5819 5820 5821 5822 5822 5823 5823 5824 5825 5826 5826 5827 5828 5829 5829 5830 5831 5831 5831 5832 5832 5832
5791 5793 5793 5795 5797 5798 5799 5799 5800 5800 5801 5802 5803 5804 5805 5805 5806 5807 5807 5808 5809 5809 5809 5809 5810 5811 5812 5813 5814 5814 5815 5816 5816 5817 5818 5819 5819 5820 5820 5821 5822 5823 5824 5825 5825 5826 5826 5826 5827
5784 5786 5788 5789 5790 5791 5791 5792 5793 5794 5794 5794 5795 5797 5798 5798 5798 5799 5800 5801 5801 5801 5801 5802 5803 5804 5805 5806 5807 5808 5808 5809 5809 5810 5811 5812 5812 5813 5813 5814 5815 5816 5817 5818 5818 5819 5820 5820 5820
5777 5779 5781 5781 5782 5783 5784 5785 5785 5786 5787 5787 5788 5789 5790 5790 5790 5791 5792 5793 5794 5794 5794 5795 5796 5797 5798 5799 5800 5800 5801 5802 5802 5802 5803 5804 5805 5806 5806 5807 5808 5809 5810 5810 5811 5812 5812 5813 5813
5771 5772 5773 5774 5775 5776 5776 5777 5778 5778 5779 5779 5780 5780 5781 5781 5782 5782 5783 5784 5785 5786 5787 5787 5788 5790 5791 5792 5792 5793 5794 5794 5794 5795 5795 5796 5797 5798 5798 5799 5800 5801 5802 5803 5804 5804 5805 5805 5806
5764 5766 5766 5767 5767 5768 5768 5769 5770 5771 5771 5771 5771 5771 5773 5773 5773 5774 5776 5776 5777 5778 5779 5780 5781 5782 5783 5784 5784 5785 5786 5786 5787 5787 5787 5788 5789 5790 5790 5791 5792 5793 5794 5795 5796 5796 5796 5797 5797
5757 5758 5759 5759 5760 5761 5761 5761 5762 5763 5762 5762 5763 5763 5764 5764 5765 5766 5768 5768 5768 5770 5771 5772 5773 5774 5775 5776 5776 5777 5777 5777 5778 5779 5779 5780 5781 5782 5782 5783 5784 5785 5786 5787 5788 5788 5788 5788 5789
5750 5751 5752 5752 5753 5753 5754 5754 5755 5755 5754 5754 5754 5755 5755 5756 5757 5758 5759 5759 5760 5761 5762 5763 5764 5765 5767 5767 5768 5768 5768 5768 5769 5770 5771 5772 5772 5773 5774 5775 5776 5777 5778 5779 5779 5780 5780 5780 5780
5743 5743 5745 5746 5746 5746 5747 5747 5748 5746 5746 5746 5746 5746 5747 5748 5749 5750 5751 5751 5751 5752 5753 5754 5755 5757 5757 5758 5759 5759 5759 5759 5760 5761 5762 5762 5763 5764 5765 5766 5767 5768 5769 5769 5770 5770 5770 5770 5770
5735 5736 5737 5739 5738 5738 5738 5739 5740 5738 5739 5739 5739 5739 5739 5740 5741 5742 5742 5742 5742 5743 5744 5745 5747 5748 5749 5749 5749 5749 5749 5749 5750 5751 5752 5753 5753 5754 5755 5756 5757 5758 5759 5759 5760 5760 5760 5760 5760
5729 5729 5730 5731 5731 5731 5730 5731 5732 5731 5731 5731 5731 5731 5732 5732 5733 5734 5734 5734 5734 5735 5735 5736 5738 5739 5740 5740 5740 5740 5740 5740 5740 5741 5742 5742 5743 5744 5745 5746 5747 5748 5749 5749 5750 5750 5750 5750 5750
5721 5722 5722 5723 5723 5723 5723 5723 5724 5723 5723 5723 5724 5724 5724 5725 5726 5726 5726 5726 5727 5727 5728 5728 5729 5730 5730 5730 5730 5730 5730 5730 5730 5731 5731 5732 5732 5733 5734 5735 5736 5737 5738 5739 5739 5739 5740 5740 5739
5713 5714 5714 5715 5715 5715 5715 5716 5716 5715 5715 5716 5716 5716 5716 5717 5718 5718 5718 5719 5719 5719 5719 5719 5720 5720 5720 5720 5720 5720 5720 5720 5720 5720 5720 5721 5721 5722 5723 5724 5725 5726 5727 5728 5728 5728 5729 5729 5728
5706 5707 5707 5707 5707 5707 5707 5708 5708 5708 5708 5708 5708 5708 5708 5709 5709 5710 5710 5710 5710 5710 5710 5710 5710 5710 5710 5710 5710 5710 5709 5709 5709 5710 5709 5710 5710 5711 5712 5713 5714 5715 5716 5716 5716 5716 5717 5717 5717
5698 5699 5699 5699 5699 5699 5700 5699 5701 5701 5700 5700 5701 5701 5701 5701 5701 5701 5701 5701 5702 5701 5701 5701 5700 5700 5699 5699 5699 5699 5699 5699 5698 5699 5699 5699 5698 5699 5700 5701 5703 5704 5704 5705 5704 5705 5705 5705 5705
5691 5692 5692 5692 5691 5691 5691 5691 5694 5693 5693 5694 5694 5694 5693 5693 5693 5693 5693 5692 5692 5692 5692 5691 5690 5690 5689 5689 5688 5688 5688 5688 5687 5687 5688 5688 5687 5687 5688 5690 5691 5692 5692 5693 5694 5693 5693 5693 5693
5684 5684 5684 5684 5683 5684 5684 5683 5685 5686 5686 5686 5686 5685 5685 5684 5684 5684 5683 5683 5683 5682 5682 5681 5681 5680 5679 5678 5678 5677 5677 5677 5677 5677 5677 5677 5676 5676 5677 5678 5679 5680 5680 5682 5682 5681 5681 5681 5681
5677 5677 5677 5675 5675 5676 5677 5675 5677 5678 5678 5678 5677 5677 5676 5675 5675 5675 5674 5674 5673 5673 5672 5672 5671 5670 5669 5668 5667 5667 5666 5666 5666 5666 5666 5666 5665 5666 5666 5667 5667 5668 5668 5669 5669 5669 5669 5668 5668
5669 5669 5670 5669 5668 5669 5668 5667 5670 5670 5669 5668 5668 5668 5667 5667 5666 5666 5665 5665 5664 5663 5662 5662 5661 5660 5659 5658 5657 5657 5656 5656 5656 5655 5655 5655 5655 5654 5655 5655 5655 5655 5656 5657 5656 5656 5656 5655 5655
5661 5661 5662 5661 5660 5660 5659 5660 5662 5661 5661 5660 5659 5659 5659 5658 5657 5656 5656 5655 5654 5653 5653 5652 5651 5650 5649 5648 5647 5647 5646 5645 5645 5644 5644 5644 5643 5643 5643 5643 5643 5643 5644 5644 5643 5643 5643 5642 5641
5654 5654 5653 5653 5651 5651 5652 5652 5654 5653 5652 5651 5651 5650 5649 5649 5648 5647 5646 5645 5644 5643 5643 5642 5640 5639 5639 5638 5637 5637 5636 5635 5634 5633 5633 5632 5632 5631 5631 5631 5631 5632 5632 5631 5631 5630 5630 5629 5628
5646 5646 5645 5645 5644 5643 5643 5647 5646 5644 5643 5642 5642 5641 5640 5639 5638 5637 5636 5635 5634 5633 5633 5632 5630 5629 5629 5628 5627 5626 5625 5624 5623 5622 5621 5620 5620 5619 5620 5620 5619 5620 5619 5619 5618 5617 5617 5617 5615
5637 5638 5637 5638 5637 5636 5635 5639 5636 5635 5634 5633 5632 5631 5630 5629 5629 5628 5627 5626 5625 5624 5623 5621 5620 5619 5618 5617 5616 5615 5614 5613 5612 5611 5609 5609 5608 5608 5608 5608 5608 5607 5607 5606 5605 5605 5605 5604 5603